• In United Kingdom
  • List of Countries
  • For 7 days
  • Water Temperature
  • Satellite Maps
  • Weather Map
  • Weather Widgets
  • user-avatar
    Login

    Hourly Weather Kalat

    Today, 20 April, Friday

    Time Temperature Precipitation Wind Pressure Humidity
    00:00 -9°C° 0.8 mm 2 mps 468 mmHg 95%
    01:00 -9°C° 0.8 mm 2 mps 468 mmHg 94%
    02:00 -9°C° 0.8 mm 2 mps 468 mmHg 94%
    03:00 -9°C° 0.5 mm 2 mps 468 mmHg 94%
    04:00 -10°C° 0.5 mm 2 mps 467 mmHg 93%
    05:00 -9°C° 0 mm 2 mps 468 mmHg 94%
    06:00 -8°C° 0.5 mm 2 mps 468 mmHg 92%
    07:00 -8°C° 0.5 mm 2 mps 468 mmHg 90%
    08:00 -8°C° 0.5 mm 2 mps 468 mmHg 88%
    09:00 -7°C° 0.4 mm 2 mps 469 mmHg 87%
    10:00 -8°C° 0.4 mm 3 mps 469 mmHg 86%
    11:00 -7°C° 0 mm 3 mps 469 mmHg 85%
    12:00 -6°C° 0.4 mm 3 mps 470 mmHg 84%
    13:00 -6°C° 0.4 mm 3 mps 470 mmHg 83%
    14:00 -6°C° 0.4 mm 3 mps 470 mmHg 82%
    15:00 -6°C° 0.2 mm 3 mps 470 mmHg 81%
    16:00 -6°C° 0.2 mm 3 mps 470 mmHg 80%
    17:00 -6°C° 0.2 mm 3 mps 470 mmHg 80%
    18:00 -8°C° 0 mm 3 mps 469 mmHg 82%
    19:00 -8°C° 0 mm 2 mps 468 mmHg 84%
    20:00 -10°C° 0 mm 2 mps 467 mmHg 86%
    21:00 -12°C° 0 mm 2 mps 467 mmHg 85%
    22:00 -13°C° 0 mm 2 mps 467 mmHg 84%
    23:00 -13°C° 0 mm 2 mps 466 mmHg 83%

    Tomorrow, 21 April, Saturday

    Time Temperature Precipitation Wind Pressure Humidity
    00:00 -15°C° 0 mm 3 mps 466 mmHg 77%
    01:00 -15°C° 0 mm 3 mps 466 mmHg 71%
    02:00 -15°C° 0 mm 3 mps 466 mmHg 65%
    03:00 -16°C° 0 mm 3 mps 466 mmHg 56%
    04:00 -16°C° 0 mm 3 mps 466 mmHg 48%
    05:00 -16°C° 0 mm 3 mps 466 mmHg 39%
    06:00 -13°C° 0 mm 2 mps 468 mmHg 41%
    07:00 -9°C° 0 mm 2 mps 470 mmHg 43%
    08:00 -7°C° 0 mm 2 mps 471 mmHg 45%
    09:00 -6°C° 0 mm 2 mps 472 mmHg 43%
    10:00 -2°C° 0 mm 1 mps 474 mmHg 42%
    11:00 -1°C° 0 mm 1 mps 475 mmHg 40%
    12:00 -1°C° 0 mm 1 mps 475 mmHg 45%
    13:00 -2°C° 0 mm 2 mps 475 mmHg 49%
    14:00 -2°C° 0 mm 2 mps 475 mmHg 53%
    15:00 0°C° 0 mm 1 mps 475 mmHg 54%
    16:00 0°C° 0 mm 1 mps 475 mmHg 55%
    17:00 0°C° 0 mm 1 mps 475 mmHg 57%
    18:00 -3°C° 0 mm 1 mps 473 mmHg 54%
    19:00 -6°C° 0 mm 1 mps 472 mmHg 52%
    20:00 -9°C° 0 mm 2 mps 470 mmHg 49%
    21:00 -10°C° 0 mm 2 mps 470 mmHg 46%
    22:00 -10°C° 0 mm 2 mps 470 mmHg 43%
    23:00 -13°C° 0 mm 3 mps 470 mmHg 40%

    Day after tomorrow, 22 April, Sunday

    Time Temperature Precipitation Wind Pressure Humidity
    00:00 -13°C° 0 mm 3 mps 470 mmHg 37%
    01:00 -13°C° 0 mm 3 mps 470 mmHg 34%
    02:00 -13°C° 0 mm 3 mps 470 mmHg 31%
    03:00 -13°C° 0 mm 3 mps 470 mmHg 31%
    04:00 -13°C° 0 mm 3 mps 470 mmHg 30%
    05:00 -13°C° 0 mm 3 mps 469 mmHg 29%
    06:00 -9°C° 0 mm 2 mps 471 mmHg 34%
    07:00 -7°C° 0 mm 2 mps 473 mmHg 40%
    08:00 -5°C° 0 mm 2 mps 474 mmHg 45%
    09:00 -4°C° 0 mm 2 mps 475 mmHg 45%
    10:00 -2°C° 0 mm 2 mps 476 mmHg 45%
    11:00 +1°C° 0 mm 1 mps 477 mmHg 45%
    12:00 +2°C° 0 mm 1 mps 477 mmHg 47%
    13:00 +2°C° 0 mm 1 mps 477 mmHg 49%
    14:00 +2°C° 0 mm 1 mps 477 mmHg 51%
    15:00 +2°C° 0 mm 1 mps 477 mmHg 51%
    16:00 +2°C° 0 mm 1 mps 477 mmHg 51%
    17:00 +2°C° 0 mm 1 mps 477 mmHg 52%
    18:00 -2°C° 0 mm 2 mps 476 mmHg 51%
    19:00 -4°C° 0 mm 2 mps 475 mmHg 50%
    20:00 -6°C° 0 mm 2 mps 474 mmHg 49%
    21:00 -6°C° 0 mm 2 mps 474 mmHg 49%
    22:00 -6°C° 0 mm 2 mps 474 mmHg 49%
    23:00 -6°C° 0 mm 2 mps 475 mmHg 49%

    23 April, Monday

    Time Temperature Precipitation Wind Pressure Humidity
    00:00 -7°C° 0 mm 2 mps 474 mmHg 49%
    01:00 -7°C° 0 mm 2 mps 474 mmHg 49%
    02:00 -9°C° 0 mm 3 mps 473 mmHg 50%
    03:00 -9°C° 0 mm 3 mps 473 mmHg 51%
    04:00 -9°C° 0 mm 3 mps 473 mmHg 52%
    05:00 -9°C° 0 mm 3 mps 473 mmHg 53%
    06:00 -8°C° 0 mm 3 mps 474 mmHg 54%
    07:00 -6°C° 0 mm 3 mps 475 mmHg 56%
    08:00 -3°C° 0 mm 2 mps 477 mmHg 58%
    09:00 -2°C° 0 mm 2 mps 478 mmHg 58%
    10:00 +1°C° 0 mm 2 mps 478 mmHg 59%
    11:00 +2°C° 0 mm 2 mps 479 mmHg 59%
    12:00 +2°C° 0 mm 2 mps 479 mmHg 59%
    13:00 +3°C° 0 mm 2 mps 479 mmHg 59%
    14:00 +3°C° 0 mm 2 mps 479 mmHg 59%
    15:00 +3°C° 0 mm 2 mps 479 mmHg 56%
    16:00 +3°C° 0 mm 2 mps 479 mmHg 53%
    17:00 +4°C° 0 mm 1 mps 478 mmHg 50%
    18:00 +1°C° 0 mm 2 mps 477 mmHg 50%
    19:00 -2°C° 0 mm 2 mps 476 mmHg 49%
    20:00 -5°C° 0 mm 2 mps 475 mmHg 48%
    21:00 -5°C° 0 mm 2 mps 475 mmHg 47%
    22:00 -6°C° 0 mm 3 mps 475 mmHg 45%
    23:00 -6°C° 0 mm 3 mps 475 mmHg 43%

    24 April, Tuesday

    Time Temperature Precipitation Wind Pressure Humidity
    00:00 -7°C° 0 mm 3 mps 475 mmHg 41%
    01:00 -7°C° 0 mm 3 mps 474 mmHg 38%
    02:00 -7°C° 0 mm 3 mps 474 mmHg 36%
    03:00 -7°C° 0 mm 3 mps 474 mmHg 34%
    04:00 -7°C° 0 mm 3 mps 474 mmHg 32%
    05:00 -7°C° 0 mm 3 mps 474 mmHg 31%
    06:00 -5°C° 0 mm 3 mps 475 mmHg 34%
    07:00 -4°C° 0 mm 3 mps 476 mmHg 37%
    08:00 -1°C° 0 mm 2 mps 477 mmHg 39%
    09:00 +2°C° 0 mm 2 mps 478 mmHg 48%
    10:00 +4°C° 0 mm 1 mps 479 mmHg 56%
    11:00 +6°C° 0 mm 1 mps 480 mmHg 65%
    12:00 +6°C° 0 mm 1 mps 480 mmHg 66%
    13:00 +6°C° 0 mm 1 mps 480 mmHg 68%
    14:00 +7°C° 0 mm 1 mps 480 mmHg 70%
    15:00 +6°C° 0 mm 1 mps 479 mmHg 62%
    16:00 +6°C° 0 mm 1 mps 479 mmHg 54%
    17:00 +6°C° 0 mm 1 mps 479 mmHg 46%
    18:00 +4°C° 0 mm 1 mps 478 mmHg 47%
    19:00 +3°C° 0 mm 1 mps 477 mmHg 47%
    20:00 +1°C° 0 mm 1 mps 476 mmHg 47%
    21:00 +1°C° 0 mm 1 mps 476 mmHg 47%
    22:00 +1°C° 0 mm 1 mps 476 mmHg 47%
    23:00 -1°C° 0 mm 2 mps 476 mmHg 46%

    25 April, Wednesday

    Time Temperature Precipitation Wind Pressure Humidity
    00:00 -2°C° 0 mm 2 mps 476 mmHg 48%
    01:00 -2°C° 0 mm 2 mps 476 mmHg 49%
    02:00 -3°C° 0 mm 2 mps 475 mmHg 51%
    03:00 -3°C° 0 mm 2 mps 476 mmHg 54%
    04:00 -3°C° 0 mm 2 mps 476 mmHg 57%
    05:00 -3°C° 0 mm 2 mps 476 mmHg 60%
    06:00 -2°C° 0 mm 2 mps 476 mmHg 62%
    07:00 -2°C° 0 mm 2 mps 477 mmHg 64%
    08:00 -1°C° 0 mm 2 mps 478 mmHg 66%
    09:00 +1°C° 0.1 mm 2 mps 478 mmHg 68%
    10:00 +2°C° 0.1 mm 2 mps 479 mmHg 71%
    11:00 +2°C° 0.1 mm 2 mps 479 mmHg 74%
    12:00 +2°C° 0.1 mm 2 mps 479 mmHg 75%
    13:00 +3°C° 0.1 mm 2 mps 479 mmHg 77%
    14:00 +3°C° 0.1 mm 2 mps 479 mmHg 78%
    15:00 +2°C° 0.2 mm 3 mps 479 mmHg 77%
    16:00 +1°C° 0.2 mm 3 mps 479 mmHg 76%
    17:00 +1°C° 0.2 mm 3 mps 478 mmHg 75%
    18:00 0°C° 0.1 mm 3 mps 478 mmHg 77%
    19:00 -1°C° 0.1 mm 3 mps 477 mmHg 79%
    20:00 -2°C° 0.1 mm 3 mps 477 mmHg 81%
    21:00 -3°C° 0 mm 2 mps 476 mmHg 82%
    22:00 -3°C° 0 mm 2 mps 476 mmHg 83%
    23:00 -4°C° 0 mm 2 mps 476 mmHg 84%
    Show more